Torna al catalogo

COSMOS 1275 DEB

AttivoPO
NORAD 42105·DEBRIS·🇷🇺 Russia

Lanciato Jun 4, 1981 da Plesetsk Cosmodrome

Loading…

Prossimi Passaggi (prossime 24 ore)

TLE

AggiornatoSource: Space-Track

Epoca: Sep 11, 2026, 23:32 UTC

1 42105U 81053PR  26254.98068815  .00000762  00000-0  86160-3 0  9992
2 42105  82.9780 330.7275 0175773 164.6139 316.7844 13.62897996276698

Traccia COSMOS 1275 DEB in tempo reale con AllMySat

Download on the App Store